This is the latest recevied weather packets stored in our database for station/object OE9GTV. If no packets are shown the sender has not sent any weather packets the latest 10 day(s).
| Time | Temp. | Humidity | Pressure | Rain* | Wind** | Luminosity | Snow |
|---|---|---|---|---|---|---|---|
| 1777552875 | 19.44° C | 41% | 1018.7 hPa | 0 mm | - | 0 W/m² | - |
| 1777552275 | 18.89° C | 41% | 1018.8 hPa | 0 mm | - | 0 W/m² | - |
| 1777551675 | 18.89° C | 42% | 1018.9 hPa | 0 mm | - | 0 W/m² | - |
| 1777551075 | 18.89° C | 41% | 1019 hPa | 0 mm | - | 0 W/m² | - |
| 1777550475 | 18.33° C | 42% | 1019.1 hPa | 0 mm | - | 0 W/m² | - |
| 1777549875 | 18.33° C | 45% | 1019.2 hPa | 0 mm | - | 0 W/m² | - |
| 1777549275 | 18.33° C | 46% | 1019.3 hPa | 0 mm | - | 0 W/m² | - |
| 1777548675 | 17.78° C | 44% | 1019.3 hPa | 0 mm | - | 0 W/m² | - |
| 1777548075 | 17.78° C | 45% | 1019.4 hPa | 0 mm | - | 0 W/m² | - |
| 1777547475 | 17.22° C | 44% | 1019.6 hPa | 0 mm | - | 0 W/m² | - |
| 1777546875 | 17.22° C | 45% | 1019.6 hPa | 0 mm | - | 0 W/m² | - |
| 1777546275 | 17.22° C | 46% | 1019.6 hPa | 0 mm | - | 0 W/m² | - |
| 1777545674 | 16.67° C | 47% | 1019.6 hPa | 0 mm | - | 0 W/m² | - |
| 1777545074 | 16.67° C | 48% | 1019.6 hPa | 0 mm | - | 0 W/m² | - |
| 1777544474 | 16.11° C | 50% | 1019.7 hPa | 0 mm | - | 0 W/m² | - |
| 1777543874 | 15.56° C | 50% | 1019.8 hPa | 0 mm | - | 0 W/m² | - |
| 1777543274 | 15.56° C | 51% | 1019.9 hPa | 0 mm | - | 0 W/m² | - |
| 1777542674 | 15° C | 54% | 1019.9 hPa | 0 mm | - | 0 W/m² | - |
| 1777542074 | 15° C | 55% | 1020 hPa | 0 mm | - | 0 W/m² | - |
| 1777541474 | 14.44° C | 55% | 1020.3 hPa | 0 mm | - | 0 W/m² | - |
| 1777540874 | 14.44° C | 55% | 1020.3 hPa | 0 mm | - | 0 W/m² | - |
| 1777540274 | 13.89° C | 58% | 1020.3 hPa | 0 mm | - | 0 W/m² | - |
| 1777539674 | 13.89° C | 57% | 1020.4 hPa | 0 mm | - | 0 W/m² | - |
| 1777539074 | 13.33° C | 59% | 1020.4 hPa | 0 mm | - | 0 W/m² | - |
| 1777538474 | 13.33° C | 60% | 1020.4 hPa | 0 mm | - | 0 W/m² | - |
* Rain latest hour (hover to see other rain measurements)
** Current wind speed in m/s (hover to see current wind gust speed)